Regional Weather Roundup
Issued by NWS Glasgow, MT

Home | Current Version | Previous Version | Text Only | Print | Product List | Glossary On
Versions: 1 2 3 4 5 6 7 8 9 10 11 12 13 14 15 16 17 18 19 20 21 22 23 24 25 26 27
000
ASUS45 KGGW 031015
RWRGGW
HOURLY REGIONAL WEATHER ROUNDUP FOR NORTHEAST MONTANA
NATIONAL WEATHER SERVICE GLASGOW MONTANA
300 AM MST SAT DEC 03 2016

NOTE: "FAIR" INDICATES FEW OR NO CLOUDS BELOW 12,000 FEET WITH NO
SIGNIFICANT WEATHER AND/OR OBSTRUCTIONS TO VISISBILITY.

NORTHEAST MONTANA


CITY           SKY/WX    TMP DP  RH WIND       PRES   REMARKS
GLASGOW        NOT AVBL
PLENTYWOOD       N/A     21  21 100 S8          N/A
WOLF POINT     NOT AVBL
JORDAN           N/A     28  18  66 W7        29.85S
SIDNEY         CLEAR     12   9  87 S3        29.91F
GLENDIVE       CLEAR     22  17  81 S7        29.90
MALTA            N/A     33  32  96 S8G20       N/A
SCOBEY           N/A     23  15  71 SE8       29.80F

FORT PECK REPORTS


CITY           SKY/WX    TMP DP  RH WIND       PRES   REMARKS
FORT PECK        N/A     33  26  75 S17         N/A
THE PINES        N/A     34  23  64 SW3G12      N/A

SOUTHEAST MONTANA


CITY           SKY/WX    TMP DP  RH WIND       PRES   REMARKS
BILLINGS       NOT AVBL
MILES CITY     NOT AVBL
BAKER          NOT AVBL
LIVINGSTON     NOT AVBL

CENTRAL MONTANA


CITY           SKY/WX    TMP DP  RH WIND       PRES   REMARKS
HAVRE          NOT AVBL
LEWISTOWN      CLEAR     28  19  69 SW14      29.81S
GREAT FALLS    NOT AVBL
CUT BANK       CLEAR     31  20  63 W21G31    29.77
HELENA         NOT AVBL
BUTTE          NOT AVBL
BOZEMAN        CLOUDY    26  24  92 S3        30.00

WESTERN MONTANA


CITY           SKY/WX    TMP DP  RH WIND       PRES   REMARKS
MISSOULA       NOT AVBL
KALISPELL      NOT AVBL

NORTH DAKOTA


CITY           SKY/WX    TMP DP  RH WIND       PRES   REMARKS
WILLISTON      CLEAR     21  18  88 S3        29.91
DICKINSON      CLEAR     17  14  88 S12       29.94F
MINOT          CLEAR     21  19  92 SE6       29.98
BISMARCK       CLEAR     18  17  96 SE10      30.09

SOUTHERN SASKATCHEWAN


CITY           SKY/WX    TMP DP  RH WIND       PRES   REMARKS
REGINA         CLEAR     18  16  93 SE13      29.79F
ESTEVAN        PTCLDY    25  21  86 S12       29.88F
SWIFT CURRENT  CLOUDY    32  30  93 SW18G25   29.64F





USA.gov is the U.S. government's official web portal to all federal, state and local government web resources and services.